Omak, WA

6:46 PM PST on December 10, 2016 (GMT -0800)
Omak

Weather History for KOMK - November, 2014

Change the Weather History Date:

Thursday, November 20, 2014

  Actual Average Record
Temperature  
Mean Temperature 36 °F 34 °F  
Max Temperature 43 °F 41 °F 58 °F (1962)
Min Temperature 28 °F 27 °F 8 °F (1961)
Degree Days  
Heating Degree Days 29 31  
Month to date heating degree days 581 541  
Since 1 July heating degree days 1041 1201  
Cooling Degree Days 0 0  
Month to date cooling degree days 0 0  
Year to date cooling degree days 873 665  
Moisture  
Dew Point 24 °F    
Average Humidity 64    
Maximum Humidity 78    
Minimum Humidity 49    
Precipitation  
Precipitation 0.00 in 0.05 in 0.49 in (1960)
Month to date precipitation 0.33 1.01  
Year to date precipitation 9.38 11.95  
Sea Level Pressure  
Sea Level Pressure 30.08 in    
Wind  
Wind Speed 5 mph (South)    
Max Wind Speed 15 mph    
Max Gust Speed 19 mph    
Visibility 10 miles    
Events      
T = Trace of Precipitation, MM = Missing Value Source: NWS Daily Summary

Daily Weather History Graph

Daily Weather History Graph

Search for Another Location

Airport or City:

Trip Planner

Search our weather history database for the weather conditions in past years. The results will help you decide how hot, cold, wet, or windy it might be!

Date:

Astronomy

Nov. 20, 2014 Rise Set
Actual Time 7:13 AM PST 4:13 PM PST
Civil Twilight 6:38 AM PST 4:48 PM PST
Nautical Twilight 6:00 AM PST 5:26 PM PST
Astronomical Twilight 5:23 AM PST 6:03 PM PST
Moon 5:03 AM PST (11/20) 3:29 PM PST (11/20)
Length of Visible Light 10h 09m
Length of Day
8h 59m
Waning Crescent, 3% of the Moon is Illuminated
Nov 20
Waning Crescent
Nov 22
New
Nov 29
First Quarter
Dec 6
Full
Dec 14
Last Quarter

Hourly Weather History & Observations

Time (PST) Temp. Windchill Dew Point Humidity Pressure Visibility Wind Dir Wind Speed Gust Speed Precip Events Conditions
12:53 AM 28.0 °F - 21.0 °F 75% 30.09 in 10.0 mi Calm Calm - N/A   Clear
1:53 AM 28.9 °F - 21.9 °F 75% 30.09 in 10.0 mi Calm Calm - N/A   Clear
2:53 AM 30.0 °F - 21.9 °F 72% 30.08 in 10.0 mi Calm Calm - N/A   Overcast
3:53 AM 30.0 °F - 21.9 °F 72% 30.08 in 10.0 mi Calm Calm - N/A   Overcast
4:53 AM 30.0 °F - 21.9 °F 72% 30.09 in 10.0 mi Calm Calm - N/A   Overcast
5:53 AM 30.0 °F - 21.9 °F 72% 30.09 in 10.0 mi Calm Calm - N/A   Mostly Cloudy
6:53 AM 30.9 °F 27.5 °F 23.0 °F 72% 30.10 in 10.0 mi SSE 3.5 mph - N/A   Overcast
7:53 AM 33.1 °F 28.7 °F 24.1 °F 70% 30.10 in 10.0 mi SSW 4.6 mph - N/A   Overcast
8:53 AM 34.0 °F 28.8 °F 24.1 °F 67% 30.12 in 10.0 mi South 5.8 mph - N/A   Mostly Cloudy
9:53 AM 37.0 °F 31.0 °F 24.1 °F 59% 30.12 in 10.0 mi South 8.1 mph - N/A   Clear
10:53 AM 39.0 °F 34.0 °F 23.0 °F 53% 30.11 in 10.0 mi South 6.9 mph - N/A   Clear
11:53 AM 41.0 °F 34.7 °F 24.1 °F 51% 30.08 in 10.0 mi South 10.4 mph - N/A   Clear
12:53 PM 42.1 °F 36.1 °F 25.0 °F 51% 30.06 in 10.0 mi South 10.4 mph - N/A   Clear
1:53 PM 42.1 °F 36.1 °F 25.0 °F 51% 30.06 in 10.0 mi South 10.4 mph - N/A   Clear
2:53 PM 39.9 °F 34.5 °F 25.0 °F 55% 30.05 in 10.0 mi South 8.1 mph - N/A   Clear
3:53 PM 39.0 °F 32.8 °F 25.0 °F 57% 30.06 in 10.0 mi South 9.2 mph - N/A   Partly Cloudy
4:53 PM 37.0 °F 32.4 °F 25.0 °F 62% 30.06 in 10.0 mi South 5.8 mph - N/A   Partly Cloudy
5:53 PM 37.9 °F 31.5 °F 25.0 °F 60% 30.06 in 10.0 mi South 9.2 mph - N/A   Overcast
6:53 PM 36.0 °F 29.0 °F 25.0 °F 64% 30.06 in 10.0 mi SSW 9.2 mph - N/A   Scattered Clouds
7:53 PM 34.0 °F 28.0 °F 25.0 °F 70% 30.06 in 10.0 mi South 6.9 mph - N/A   Clear
8:53 PM 34.0 °F 27.2 °F 25.0 °F 70% 30.06 in 9.0 mi South 8.1 mph - N/A   Partly Cloudy
9:53 PM 33.1 °F 26.9 °F 25.0 °F 72% 30.06 in 9.0 mi South 6.9 mph - N/A   Scattered Clouds
10:53 PM 30.0 °F - 24.1 °F 79% 30.05 in 8.0 mi Calm Calm - N/A   Scattered Clouds
11:53 PM 32.0 °F 27.5 °F 25.0 °F 75% 30.05 in 8.0 mi ESE 4.6 mph - N/A   Mostly Cloudy